| time (UTC) | temp C | wind direction | speed KPH | gust KPH | rain 1hr cm | rain 24hr cm | rain mn cm | humidity % | barometer mb |
| 20260509183521 | 9 | 114 | 3.2 | 6.4 | 320.93 | 0.00 | 0.51 | 96 | 1013.5 |
| 20260509183021 | 9 | 20 | 3.2 | 3.2 | 320.93 | 0.00 | 0.51 | 96 | 1013.3 |
| 20260509182521 | 9 | 15 | 1.6 | 3.2 | 320.93 | 0.00 | 0.51 | 96 | 1013.4 |
| 20260509182021 | 9 | 34 | 0.0 | 1.6 | 320.93 | 0.00 | 0.51 | 96 | 1013.5 |
| 20260509181521 | 8 | 101 | 0.0 | 1.6 | 320.93 | 0.00 | 0.51 | 96 | 1013.6 |
| 20260509180521 | 8 | 0 | 0.0 | 0.0 | 320.93 | 0.00 | 0.51 | 95 | 1013.8 |
| 20260509180022 | 8 | 0 | 0.0 | 0.0 | 320.90 | 0.00 | 0.48 | 95 | 1013.8 |
| 20260509175025 | 8 | 0 | 0.0 | 0.0 | 320.90 | 0.00 | 0.48 | 95 | 1014.0 |
| 20260509174521 | 8 | 0 | 0.0 | 0.0 | 320.90 | 0.00 | 0.48 | 95 | 1014.1 |
| 20260509171522 | 8 | 0 | 0.0 | 0.0 | 320.85 | 0.00 | 0.43 | 95 | 1014.0 |
| 20260509165021 | 8 | 0 | 0.0 | 0.0 | 320.80 | 0.00 | 0.38 | 95 | 1014.5 |
| 20260509164522 | 8 | 101 | 0.0 | 1.6 | 320.80 | 0.00 | 0.38 | 95 | 1014.4 |
| 20260509163520 | 8 | 0 | 0.0 | 0.0 | 320.78 | 0.00 | 0.36 | 95 | 1014.4 |
| 20260509163022 | 8 | 0 | 0.0 | 0.0 | 320.75 | 0.00 | 0.33 | 95 | 1014.7 |
| 20260509161521 | 8 | 0 | 0.0 | 0.0 | 320.73 | 0.00 | 0.30 | 95 | 1014.4 |
| 20260509160520 | 8 | 0 | 0.0 | 0.0 | 320.70 | 0.00 | 0.28 | 95 | 1014.1 |
| 20260509160022 | 8 | 59 | 0.0 | 3.2 | 320.70 | 0.00 | 0.28 | 95 | 1014.3 |
| 20260509155021 | 8 | 0 | 0.0 | 0.0 | 320.70 | 0.00 | 0.28 | 95 | 1014.3 |
| 20260509154521 | 8 | 0 | 0.0 | 0.0 | 320.68 | 0.00 | 0.25 | 95 | 1014.3 |
| 20260509150522 | 7 | 338 | 0.0 | 3.2 | 320.65 | 0.00 | 0.23 | 95 | 1014.9 |
| 20260509150023 | 7 | 336 | 0.0 | 3.2 | 320.62 | 0.00 | 0.20 | 95 | 1015.0 |
| 20260509144522 | 7 | 335 | 1.6 | 3.2 | 320.62 | 0.00 | 0.20 | 95 | 1015.1 |
| 20260509144022 | 7 | 0 | 0.0 | 0.0 | 320.62 | 0.00 | 0.20 | 95 | 1015.2 |
| 20260509143521 | 7 | 328 | 0.0 | 1.6 | 320.62 | 0.00 | 0.20 | 95 | 1015.1 |
| 20260509143021 | 7 | 330 | 0.0 | 1.6 | 320.60 | 0.00 | 0.18 | 95 | 1015.0 |
| 20260509142520 | 7 | 0 | 0.0 | 0.0 | 320.60 | 0.00 | 0.18 | 95 | 1015.1 |
| 20260509142021 | 7 | 0 | 0.0 | 0.0 | 320.60 | 0.00 | 0.18 | 95 | 1015.3 |
| 20260509141020 | 6 | 0 | 0.0 | 0.0 | 320.57 | 0.00 | 0.15 | 95 | 1015.3 |
| 20260509140520 | 6 | 231 | 0.0 | 1.6 | 320.57 | 0.00 | 0.15 | 95 | 1015.3 |
| 20260509140021 | 6 | 219 | 1.6 | 1.6 | 320.55 | 0.00 | 0.13 | 95 | 1015.4 |
| 20260509135520 | 6 | 0 | 0.0 | 0.0 | 320.55 | 0.00 | 0.13 | 94 | 1015.3 |
| 20260509135020 | 6 | 0 | 0.0 | 0.0 | 320.55 | 0.00 | 0.13 | 94 | 1015.3 |
| 20260509134521 | 6 | 0 | 0.0 | 0.0 | 320.52 | 0.00 | 0.10 | 93 | 1015.3 |
| 20260509134020 | 6 | 0 | 0.0 | 0.0 | 320.52 | 0.00 | 0.10 | 94 | 1015.2 |
| 20260509133021 | 6 | 0 | 0.0 | 0.0 | 320.50 | 0.00 | 0.08 | 93 | 1014.9 |
| 20260509132020 | 6 | 0 | 0.0 | 0.0 | 320.50 | 0.00 | 0.08 | 93 | 1014.8 |
| 20260509131521 | 6 | 0 | 0.0 | 0.0 | 320.50 | 0.00 | 0.08 | 93 | 1014.8 |
| 20260509131020 | 6 | 0 | 0.0 | 0.0 | 320.47 | 0.00 | 0.05 | 92 | 1014.9 |
| 20260509130021 | 6 | 0 | 0.0 | 0.0 | 320.47 | 0.00 | 0.05 | 92 | 1015.0 |
| 20260509125520 | 6 | 0 | 0.0 | 0.0 | 320.47 | 0.00 | 0.05 | 92 | 1015.0 |
| 20260509124521 | 6 | 0 | 0.0 | 0.0 | 320.45 | 0.00 | 0.03 | 92 | 1015.1 |
| 20260509123520 | 6 | 0 | 1.6 | 0.0 | 320.45 | 0.00 | 0.03 | 92 | 1015.2 |
| 20260509122521 | 5 | 0 | 0.0 | 0.0 | 320.45 | 0.00 | 0.03 | 92 | 1015.0 |
| 20260509122020 | 5 | 0 | 0.0 | 0.0 | 320.45 | 0.00 | 0.03 | 92 | 1015.0 |
| 20260509121521 | 5 | 0 | 0.0 | 0.0 | 320.45 | 0.00 | 0.03 | 92 | 1015.2 |
| 20260509120520 | 5 | 0 | 0.0 | 0.0 | 320.42 | 0.00 | 0.00 | 92 | 1015.2 |
| 20260509120026 | 5 | 0 | 0.0 | 0.0 | 320.42 | 0.00 | 0.00 | 92 | 1015.2 |
| 20260509114521 | 4 | 0 | 0.0 | 0.0 | 320.42 | 0.00 | 0.00 | 92 | 1015.4 |
| 20260509113021 | 3 | 338 | 0.0 | 3.2 | 320.42 | 0.00 | 0.00 | 94 | 1015.4 |
| 20260509112020 | 3 | 204 | 6.4 | 6.4 | 320.42 | 0.00 | 0.00 | 95 | 1015.5 |
| 20260509111523 | 3 | 0 | 3.2 | 0.0 | 320.42 | 0.00 | 0.00 | 95 | 1015.1 |
| 20260509111020 | 3 | 0 | 0.0 | 0.0 | 320.42 | 0.00 | 0.00 | 95 | 1015.3 |
| 20260509110520 | 3 | 0 | 0.0 | 0.0 | 320.42 | 0.00 | 0.00 | 96 | 1015.3 |
| 20260509110020 | 3 | 0 | 0.0 | 0.0 | 320.42 | 0.00 | 0.00 | 96 | 1015.3 |
| 20260509105022 | 2 | 0 | 0.0 | 0.0 | 320.42 | 0.00 | 0.00 | 96 | 1015.2 |
| 20260509104520 | 2 | 0 | 0.0 | 0.0 | 320.42 | 0.00 | 0.00 | 96 | 1015.1 |
| 20260509103021 | 2 | 0 | 0.0 | 0.0 | 320.42 | 0.00 | 0.00 | 96 | 1015.1 |
| 20260509102020 | 2 | 0 | 0.0 | 0.0 | 320.42 | 0.00 | 0.00 | 96 | 1015.0 |
| 20260509101523 | 2 | 0 | 0.0 | 0.0 | 320.42 | 0.00 | 0.00 | 96 | 1015.1 |
| 20260509101020 | 1 | 0 | 0.0 | 0.0 | 320.42 | 0.00 | 0.00 | 96 | 1015.0 |
| 20260509100521 | 1 | 0 | 0.0 | 0.0 | 320.42 | 0.00 | 0.00 | 96 | 1015.0 |
| 20260509095521 | 1 | 0 | 0.0 | 0.0 | 320.42 | 0.00 | 0.00 | 96 | 1014.8 |
| 20260509095020 | 1 | 288 | 0.0 | 1.6 | 320.42 | 0.00 | 0.00 | 96 | 1014.8 |
| 20260509094521 | 1 | 274 | 1.6 | 3.2 | 320.42 | 0.00 | 0.00 | 96 | 1014.7 |
| 20260509094021 | 1 | 255 | 1.6 | 1.6 | 320.42 | 0.00 | 0.00 | 96 | 1014.7 |
| 20260509093520 | 1 | 281 | 1.6 | 3.2 | 320.42 | 0.00 | 0.00 | 96 | 1014.6 |
| 20260509093021 | 1 | 280 | 3.2 | 3.2 | 320.42 | 0.00 | 0.00 | 95 | 1014.5 |
| 20260509092520 | 2 | 0 | 0.0 | 0.0 | 320.42 | 0.00 | 0.00 | 95 | 1014.5 |
| 20260509092020 | 2 | 0 | 0.0 | 0.0 | 320.42 | 0.00 | 0.00 | 96 | 1014.3 |
| 20260509091520 | 2 | 0 | 0.0 | 0.0 | 320.42 | 0.00 | 0.00 | 96 | 1014.4 |
| 20260509091020 | 2 | 288 | 0.0 | 1.6 | 320.42 | 0.00 | 0.00 | 96 | 1014.3 |
| 20260509090520 | 2 | 291 | 1.6 | 4.8 | 320.42 | 0.00 | 0.00 | 96 | 1014.3 |
| 20260509090021 | 2 | 288 | 3.2 | 6.4 | 320.42 | 0.00 | 0.00 | 96 | 1014.3 |
| 20260509084602 | 2 | 263 | 3.2 | 6.4 | 320.42 | 0.00 | 0.00 | 96 | 1014.3 |
| 20260509084520 | 2 | 263 | 3.2 | 6.4 | 320.42 | 0.00 | 0.00 | 96 | 1014.3 |
| 20260509083020 | 2 | 288 | 3.2 | 4.8 | 320.42 | 0.00 | 0.00 | 95 | 1014.2 |
| 20260509081520 | 2 | 264 | 1.6 | 3.2 | 320.42 | 0.00 | 0.00 | 95 | 1014.2 |
| 20260509080025 | 2 | 271 | 3.2 | 4.8 | 320.42 | 0.00 | 0.00 | 94 | 1014.3 |
| 20260509074521 | 2 | 0 | 0.0 | 0.0 | 320.42 | 0.00 | 0.00 | 94 | 1014.4 |
| 20260509071523 | 2 | 285 | 1.6 | 3.2 | 320.42 | 0.00 | 0.00 | 94 | 1014.2 |
| 20260509070025 | 2 | 300 | 1.6 | 4.8 | 320.42 | 0.00 | 0.00 | 93 | 1014.2 |
| 20260509064524 | 2 | 281 | 3.2 | 6.4 | 320.42 | 0.00 | 0.00 | 92 | 1014.2 |
| 20260509063022 | 2 | 0 | 0.0 | 0.0 | 320.42 | 0.00 | 0.00 | 90 | 1014.0 |
| 20260509061524 | 3 | 288 | 1.6 | 3.2 | 320.42 | 0.00 | 0.00 | 90 | 1014.0 |
| 20260509060024 | 3 | 248 | 1.6 | 3.2 | 320.42 | 0.00 | 0.00 | 91 | 1014.2 |
| 20260509054520 | 2 | 0 | 0.0 | 0.0 | 320.42 | 0.00 | 0.00 | 91 | 1014.3 |
| 20260509053020 | 3 | 0 | 0.0 | 0.0 | 320.42 | 0.00 | 0.00 | 90 | 1014.4 |
| 20260509051521 | 3 | 290 | 0.0 | 3.2 | 320.42 | 0.00 | 0.00 | 89 | 1014.2 |
| 20260509050021 | 3 | 330 | 0.0 | 3.2 | 320.42 | 0.00 | 0.00 | 87 | 1014.1 |
| 20260509045520 | 3 | 287 | 3.2 | 3.2 | 320.42 | 0.00 | 0.00 | 86 | 1014.1 |
| 20260509044521 | 3 | 277 | 3.2 | 3.2 | 320.42 | 0.00 | 0.00 | 87 | 1014.1 |
| 20260509043021 | 3 | 0 | 0.0 | 0.0 | 320.42 | 0.00 | 0.00 | 84 | 1014.0 |
| 20260509041524 | 4 | 0 | 0.0 | 0.0 | 320.42 | 0.00 | 0.00 | 83 | 1014.0 |
| 20260509041019 | 4 | 0 | 0.0 | 0.0 | 320.42 | 0.00 | 0.00 | 83 | 1013.9 |
| 20260509040020 | 4 | 0 | 0.0 | 0.0 | 320.42 | 0.00 | 0.00 | 82 | 1013.8 |
| 20260509035019 | 5 | 0 | 0.0 | 0.0 | 320.42 | 0.00 | 0.00 | 81 | 1013.7 |
| 20260509034520 | 5 | 0 | 0.0 | 0.0 | 320.42 | 0.00 | 0.00 | 80 | 1013.7 |
| 20260509033021 | 5 | 0 | 0.0 | 0.0 | 320.42 | 0.00 | 0.00 | 80 | 1013.8 |
| 20260509032519 | 5 | 0 | 0.0 | 0.0 | 320.42 | 0.00 | 0.00 | 78 | 1013.8 |
| 20260509031521 | 5 | 0 | 0.0 | 0.0 | 320.42 | 0.00 | 0.00 | 76 | 1013.6 |
| 20260509030519 | 5 | 0 | 0.0 | 0.0 | 320.42 | 0.00 | 0.00 | 76 | 1013.6 |
| 20260509030020 | 5 | 0 | 0.0 | 0.0 | 320.42 | 0.00 | 0.00 | 75 | 1013.5 |
| 20260509025519 | 5 | 0 | 0.0 | 0.0 | 320.42 | 0.00 | 0.00 | 74 | 1013.6 |
| 20260509024520 | 6 | 0 | 0.0 | 0.0 | 320.42 | 0.00 | 0.00 | 74 | 1013.5 |
| 20260509024019 | 6 | 0 | 0.0 | 0.0 | 320.42 | 0.00 | 0.00 | 72 | 1013.4 |
| 20260509023021 | 6 | 0 | 0.0 | 0.0 | 320.42 | 0.00 | 0.00 | 71 | 1013.4 |
| 20260509021521 | 6 | 280 | 0.0 | 3.2 | 320.42 | 0.00 | 0.00 | 70 | 1013.4 |
| 20260509014521 | 7 | 0 | 0.0 | 0.0 | 320.42 | 0.00 | 0.00 | 65 | 1012.8 |
| 20260509013021 | 7 | 0 | 0.0 | 0.0 | 320.42 | 0.00 | 0.00 | 65 | 1012.7 |
| 20260509012020 | 8 | 0 | 0.0 | 0.0 | 320.42 | 0.00 | 0.00 | 62 | 1012.6 |
| 20260509010520 | 8 | 0 | 0.0 | 0.0 | 320.42 | 0.00 | 0.00 | 59 | 1012.3 |
| 20260509010021 | 8 | 0 | 0.0 | 0.0 | 320.42 | 0.00 | 0.00 | 58 | 1012.2 |
| 20260509004521 | 10 | 0 | 0.0 | 0.0 | 320.42 | 0.00 | 0.00 | 55 | 1011.9 |
| 20260509003519 | 10 | 0 | 0.0 | 0.0 | 320.42 | 0.00 | 0.00 | 53 | 1011.7 |
| 20260509003020 | 10 | 0 | 0.0 | 0.0 | 320.42 | 0.00 | 0.00 | 53 | 1011.6 |
| 20260509002519 | 11 | 0 | 0.0 | 0.0 | 320.42 | 0.00 | 0.00 | 51 | 1011.5 |
| 20260509002019 | 11 | 0 | 0.0 | 0.0 | 320.42 | 0.00 | 0.00 | 49 | 1011.4 |
| 20260509001520 | 11 | 0 | 0.0 | 0.0 | 320.42 | 0.00 | 0.00 | 49 | 1011.5 |
| 20260509001019 | 11 | 0 | 0.0 | 0.0 | 320.42 | 0.00 | 0.00 | 48 | 1011.5 |
| 20260509000519 | 11 | 0 | 0.0 | 0.0 | 320.42 | 0.00 | 0.00 | 47 | 1011.4 |
| 20260508235519 | 12 | 281 | 1.6 | 3.2 | 320.42 | 0.00 | 0.00 | 46 | 1011.1 |
| 20260508235019 | 12 | 305 | 1.6 | 11.3 | 320.42 | 0.00 | 0.00 | 45 | 1011.1 |
| 20260508234524 | 12 | 280 | 6.4 | 14.5 | 320.42 | 0.00 | 0.00 | 45 | 1011.0 |
| 20260508234019 | 12 | 284 | 4.8 | 14.5 | 320.42 | 0.00 | 0.00 | 43 | 1010.8 |
| 20260508233019 | 12 | 333 | 4.8 | 14.5 | 320.42 | 0.00 | 0.00 | 41 | 1010.8 |
| 20260508232519 | 12 | 311 | 8.0 | 14.5 | 320.42 | 0.00 | 0.00 | 39 | 1010.7 |
| 20260508232019 | 13 | 290 | 6.4 | 12.9 | 320.42 | 0.00 | 0.00 | 39 | 1010.6 |
| 20260508231519 | 13 | 280 | 1.6 | 16.1 | 320.42 | 0.00 | 0.00 | 38 | 1010.5 |
| 20260508231019 | 13 | 271 | 6.4 | 14.5 | 320.42 | 0.00 | 0.00 | 38 | 1010.4 |
| 20260508230519 | 13 | 293 | 4.8 | 6.4 | 320.42 | 0.00 | 0.00 | 36 | 1010.3 |
| 20260508230019 | 13 | 270 | 4.8 | 12.9 | 320.42 | 0.00 | 0.00 | 36 | 1010.2 |
| 20260508225519 | 13 | 288 | 8.0 | 22.5 | 320.42 | 0.00 | 0.00 | 35 | 1010.2 |
| 20260508225019 | 13 | 291 | 6.4 | 24.1 | 320.42 | 0.00 | 0.00 | 34 | 1010.1 |
| 20260508224519 | 13 | 277 | 11.3 | 16.1 | 320.42 | 0.00 | 0.00 | 34 | 1010.0 |
| 20260508224020 | 14 | 284 | 3.2 | 16.1 | 320.42 | 0.00 | 0.00 | 36 | 1010.0 |
| 20260508223519 | 14 | 274 | 11.3 | 17.7 | 320.42 | 0.00 | 0.00 | 34 | 1009.9 |
| 20260508223019 | 14 | 298 | 11.3 | 17.7 | 320.42 | 0.00 | 0.00 | 34 | 1010.0 |
| 20260508222519 | 14 | 280 | 6.4 | 22.5 | 320.42 | 0.00 | 0.00 | 35 | 1009.9 |
| 20260508222019 | 14 | 284 | 12.9 | 20.9 | 320.42 | 0.00 | 0.00 | 35 | 1009.9 |
| 20260508221519 | 14 | 291 | 9.7 | 17.7 | 320.42 | 0.00 | 0.00 | 36 | 1009.9 |
| 20260508221019 | 14 | 259 | 11.3 | 24.1 | 320.42 | 0.00 | 0.00 | 36 | 1009.8 |
| 20260508220519 | 14 | 309 | 14.5 | 22.5 | 320.42 | 0.00 | 0.00 | 38 | 1009.9 |
| 20260508220019 | 14 | 288 | 11.3 | 22.5 | 320.42 | 0.00 | 0.00 | 36 | 1009.8 |
| 20260508215519 | 13 | 287 | 9.7 | 16.1 | 320.42 | 0.00 | 0.00 | 36 | 1009.8 |
| 20260508215019 | 13 | 281 | 4.8 | 19.3 | 320.42 | 0.00 | 0.00 | 37 | 1009.8 |
| 20260508214519 | 13 | 274 | 9.7 | 24.1 | 320.42 | 0.00 | 0.00 | 36 | 1009.8 |
| 20260508214019 | 13 | 276 | 3.2 | 19.3 | 320.42 | 0.00 | 0.00 | 40 | 1009.8 |
| 20260508213519 | 13 | 284 | 6.4 | 14.5 | 320.42 | 0.00 | 0.00 | 37 | 1009.8 |
| 20260508213019 | 13 | 291 | 4.8 | 19.3 | 320.42 | 0.00 | 0.00 | 38 | 1009.8 |
| 20260508212519 | 14 | 280 | 8.0 | 20.9 | 320.42 | 0.00 | 0.00 | 36 | 1009.7 |
| 20260508212019 | 14 | 264 | 12.9 | 19.3 | 320.42 | 0.00 | 0.00 | 36 | 1009.7 |
| 20260508211519 | 15 | 277 | 6.4 | 20.9 | 320.42 | 0.00 | 0.00 | 35 | 1009.7 |
| 20260508211019 | 15 | 257 | 12.9 | 19.3 | 320.42 | 0.00 | 0.00 | 31 | 1009.5 |
| 20260508210519 | 15 | 270 | 6.4 | 16.1 | 320.42 | 0.00 | 0.00 | 36 | 1009.5 |
| 20260508210019 | 15 | 297 | 4.8 | 20.9 | 320.42 | 0.00 | 0.00 | 37 | 1009.5 |
| 20260508205519 | 15 | 278 | 16.1 | 22.5 | 320.42 | 0.00 | 0.00 | 32 | 1009.4 |
| 20260508205019 | 15 | 285 | 6.4 | 17.7 | 320.42 | 0.00 | 0.00 | 34 | 1009.4 |
| 20260508204519 | 14 | 295 | 6.4 | 22.5 | 320.42 | 0.00 | 0.00 | 34 | 1009.4 |
| 20260508204019 | 15 | 271 | 9.7 | 27.4 | 320.42 | 0.00 | 0.00 | 34 | 1009.4 |
| 20260508203019 | 15 | 262 | 9.7 | 22.5 | 320.42 | 0.00 | 0.00 | 33 | 1009.3 |
| 20260508202519 | 14 | 285 | 4.8 | 20.9 | 320.42 | 0.00 | 0.00 | 37 | 1009.3 |
| 20260508202019 | 14 | 290 | 12.9 | 16.1 | 320.42 | 0.00 | 0.00 | 35 | 1009.3 |
| 20260508201519 | 15 | 270 | 8.0 | 25.7 | 320.42 | 0.00 | 0.00 | 34 | 1009.2 |
| 20260508201019 | 15 | 312 | 12.9 | 22.5 | 320.42 | 0.00 | 0.00 | 32 | 1009.2 |
| 20260508200518 | 15 | 302 | 4.8 | 17.7 | 320.42 | 0.00 | 0.00 | 35 | 1009.1 |
| 20260508200019 | 15 | 301 | 9.7 | 29.0 | 320.42 | 0.00 | 0.00 | 34 | 1009.1 |
| 20260508195518 | 15 | 287 | 3.2 | 17.7 | 320.42 | 0.00 | 0.00 | 37 | 1009.2 |
| 20260508195018 | 15 | 288 | 0.0 | 16.1 | 320.42 | 0.00 | 0.00 | 37 | 1009.2 |
| 20260508194519 | 15 | 139 | 9.7 | 17.7 | 320.42 | 0.00 | 0.00 | 36 | 1009.2 |
| 20260508194018 | 15 | 283 | 9.7 | 20.9 | 320.42 | 0.00 | 0.00 | 34 | 1009.3 |
| 20260508193518 | 15 | 273 | 14.5 | 17.7 | 320.42 | 0.00 | 0.00 | 34 | 1009.3 |
| 20260508193019 | 15 | 284 | 8.0 | 20.9 | 320.42 | 0.00 | 0.00 | 36 | 1009.2 |
| 20260508192518 | 15 | 278 | 4.8 | 25.7 | 320.42 | 0.00 | 0.00 | 35 | 1009.3 |
| 20260508192018 | 15 | 257 | 11.3 | 20.9 | 320.42 | 0.00 | 0.00 | 35 | 1009.3 |
| 20260508191520 | 15 | 276 | 12.9 | 24.1 | 320.42 | 0.00 | 0.00 | 36 | 1009.4 |
| 20260508191018 | 15 | 285 | 12.9 | 20.9 | 320.42 | 0.00 | 0.00 | 37 | 1009.5 |
| 20260508190518 | 15 | 267 | 9.7 | 25.7 | 320.42 | 0.00 | 0.00 | 40 | 1009.6 |
| 20260508185518 | 14 | 281 | 14.5 | 30.6 | 320.42 | 0.00 | 0.00 | 35 | 1009.5 |
| 20260508185018 | 14 | 280 | 11.3 | 24.1 | 320.42 | 0.00 | 0.00 | 35 | 1009.5 |
| 20260508184519 | 14 | 287 | 8.0 | 24.1 | 320.42 | 0.00 | 0.00 | 38 | 1009.5 |